sat.trackr.live / text

‹ back to catalog

STARLINK-33606

NORAD 63421 · 2025-065Y

PAYLOAD ACTIVE UNKNOWN

§ Identity

Operator
Country
US
Launch date
2025-03-31
Launch site
AFETR
Launch vehicle
Mass (kg)
RCS (m²)

Purposes: comms

External: N2YO · Heavens-Above · Gunter

§ Orbital elements

Epoch: 2026-05-25T01:57:38.388384Z

Period
94.27 min
Inclination
43.0057°
Eccentricity
0.0001589
Mean motion
15.27589504 rev/d
Perigee alt
481.9 km
Apogee alt
484.1 km
Semi-major
6,861.2 km
B*
9.1146e-4
RAAN
35.5480°
Arg perigee
270.6638°
Mean anomaly
89.4032°
Rev number
6,452

§ Raw data

STARLINK-336061 63421U 25065Y   26145.08169431  .00024911  00000+0  91146-3 0  99942 63421  43.0057  35.5480 0001589 270.6638  89.4032 15.27589504 64526

JSON: /api/v1/satellites/63421 · /tle

For live sub-satellite position, see the globe view (requires WebGL).

§ Visibility from observer

Set your observer location to see the next 7 days of passes ≥ 10°. The values pass through the URL so the page stays shareable.

No JS? Fill the form by hand. The geolocation button needs JavaScript.